Powrót do katalogu

COSMOS 1729

AktywnyMilitariaHEO
NORAD 16527·PAYLOAD·🇷🇺 Russia

Wystrzelony Feb 1, 1986 z Plesetsk Cosmodrome

Loading…

Następne Przeloty (najbliższe 24 godziny)

TLE

ŚwieżeSource: Space-Track

Epoka: Sep 14, 2026, 12:18 UTC

1 16527U 86011A   26257.51250190  .00000022  00000-0  00000-0 0  9996
2 16527  70.9459 185.8458 4586938  37.3326  86.5597  2.00604545297546

Śledź COSMOS 1729 w czasie rzeczywistym z AllMySat

Download on the App Store